Погода в Суге-Аксы

Россия / Республика Тыва     51°24′04″N   91°16′34″E
темп.,
°C
ветер,
м/с
пор.,
м/с
влажн.,
%
обл.,
%
осадки,
мм/ч
давл.,
гПа
погр.,
м
28 февраля, вс
вс2801:00−26сз117874 0.0 104020
04:00−27сз227714 0.0 104120
07:00−29ссз117721 0.0 104419
10:00−23ююв11790 0.0 104283
13:00−20юв21900 0.0 1039210
16:00−18юв219132 0.0 1037178
19:00−24с119649 0.0 103820
22:00−23ссв0181100 0.0 103820
1 марта, пн
пн101:00−23всв0079100 0.0 103620
04:00−23юв0181100 0.0 103420
07:00−24в0084100 0.0 103320
10:00−21юв1184100 0.0 1029101
13:00−17юв2187100 0.0 1025209
16:00−16вюв2189100 0.0 1021172
19:00−20с019399 0.0 102220
22:00−20ссз0088100 0.0 102120
2 марта, вт
вт201:00−21ссз009198 0.0 102020
04:00−19ю0190100 0.0 101920
07:00−18ю1192100 0.0 102020
10:00−14ююв229498 0.0 1019104
13:00−10ю239497 0.2 1018301
16:00−7ююв2385100 0.3 1017535
19:00−10в1190100 0.4 101921
22:00−11с1184100 0.0 101921
3 марта, ср
ср301:00−12с0084100 0.0 101821
04:00−11с0093100 0.1 101721
07:00−11св1197100 0.5 101723
10:00−9юв1195100 0.5 1016109
13:00−7ююв2193100 0.6 1015248
16:00−6вюв2294100 0.3 1014188
19:00−8юв1197100 1.4 101722
22:00−8з1195100 2.2 102137
4 марта, чт
чт401:00−9сз2288100 3.1 102336
04:00−11сз2283100 0.4 102523
07:00−13сз228498 0.7 102824
10:00−10зюз017795 0.0 1028122
13:00−8ююв219096 0.1 1026313
16:00−7юв1189100 0.0 1025292
19:00−13ссз119789 0.1 102721
22:00−14ссз118241 0.0 102821